www.pogodaiklimat.ru

Погода и климат >> Архив погоды >> Великобритания >> Бала


ПОГОДА в Бала

  • Прогноз погоды в Бала
  • Монитор погоды в Бала

АРХИВ ПОГОДЫ в Бала

Время (UTC), дата Ветер
(напр.,м/с)
 
Видим.   Явления Облачность Т
(С)
Тd
(С)
f
(%)
Тe
(С)
Тes
(С)
Комфортность P
(гПа)
Po
(гПа)
Тmin
(С)
Tmax
(С)
R
(мм)
R24
(мм)
S
(см)
07 11.07 ЮЗ 4 н/о н/о +15.9 +14.8 93 +15 +15 1012.1 992.7
08 11.07 ЮЗ 5 н/о н/о +16.3 +14.8 91 +15 +15 1012.0 992.7
09 11.07 ЮЗ 6 н/о н/о +16.3 +15.0 92 +15 +15 1012.3 992.9
10 11.07 ЮЗ 5 н/о н/о +16.2 +15.4 95 +15 +15 1012.5 993.1
11 11.07 ЮЗ 6 н/о н/о +16.2 +15.1 93 +15 +15 1012.5 993.1
12 11.07 ЮЗ 6 н/о н/о +16.2 +15.2 94 +15 +15 1012.6 993.2 1
13 11.07 ЮЗ 5 н/о н/о +16.7 +15.1 90 +16 +16 1012.5 993.1
14 11.07 ЮЗ 6 н/о н/о +17.1 +15.7 91 +16 +16 1012.1 992.8
15 11.07 ЮЗ 6 н/о н/о +16.7 +15.4 92 +16 +16 1012.2 992.8
16 11.07 ЮЗ 6 н/о н/о +16.6 +15.7 94 +16 +16 1012.2 992.8
17 11.07 ЮЗ 5 н/о н/о +16.3 +15.8 97 +15 +15 1012.2 992.9
18 11.07 ЮЗ 4 н/о н/о +16.0 +15.5 97 +15 +15 1012.1 992.7 +17.1 2
19 11.07 ЮЗ 3 н/о н/о +15.8 +15.4 97 +15 +15 1012.1 992.7
20 11.07 ЮЗ 3 н/о н/о +15.7 +15.4 98 +15 +15 1012.1 992.7
21 11.07 З 2 н/о н/о +15.6 +15.4 99 +15 +15 1012.6 993.2
22 11.07 ЮЗ 2 н/о н/о +15.7 +15.4 98 +16 +16 1012.9 993.5
23 11.07 ЮЗ 3 н/о н/о +15.6 +14.8 95 +15 +15 1012.9 993.5
00 12.07 ЮВ 1 н/о н/о +14.9 +14.2 96 +16 +16 1013.0 993.5 4
01 12.07 СЗ 1 н/о н/о +14.4 +14.1 98 +15 +15 1013.2 993.7
02 12.07 ЮВ 1 н/о н/о +13.4 +13.1 98 +14 +14 1013.4 993.8
03 12.07 ЮЗ 1 н/о н/о +12.9 +12.9 100 +14 +14 1013.7 994.0
04 12.07 В 1 н/о н/о +12.4 +12.3 99 +13 +13 1014.0 994.3
05 12.07 Ю 1 н/о н/о +12.2 +12.2 100 +13 +13 1014.7 995.0
06 12.07 штиль 0 н/о н/о +13.6 +13.6 100 +13 +13 1015.2 995.6 +12.0 4
07 12.07 З 2 н/о н/о +15.4 +13.6 89 +15 +15 1015.5 996.0
08 12.07 СЗ 2 н/о н/о +16.2 +14.1 87 +17 +17 1016.0 996.5
09 12.07 СЗ 2 н/о н/о +16.2 +13.2 82 +16 +16 1016.4 996.9
10 12.07 С 1 н/о н/о +16.1 +14.4 90 +17 +17 1017.0 997.5
11 12.07 С 1 н/о н/о +17.2 +13.8 80 +18 +18 1017.4 997.9
12 12.07 С 2 н/о н/о +17.6 +13.8 78 +18 +18 1017.8 998.4 0.8
13 12.07 СЗ 3 н/о н/о +16.9 +13.2 79 +17 +17 1018.5 999.0
14 12.07 СЗ 2 н/о н/о +17.1 +13.5 79 +17 +17 1018.7 999.3
15 12.07 СЗ 3 н/о н/о +17.3 +12.9 75 +17 +17 1019.1 999.7
16 12.07 З 3 н/о н/о +17.1 +12.9 76 +17 +17 1019.2 999.7
17 12.07 З 3 н/о н/о +16.8 +12.6 76 +17 +17 1019.7 1000.2
18 12.07 З 2 н/о н/о +17.0 +12.5 75 +17 +17 1020.1 1000.6 +17.9 0.8
19 12.07 З 2 н/о н/о +16.7 +12.8 78 +17 +17 1020.5 1001.0
20 12.07 СЗ 2 н/о н/о +16.3 +12.8 80 +17 +17 1020.8 1001.3
21 12.07 С 1 н/о н/о +15.7 +13.0 84 +17 +17 1021.6 1002.0
22 12.07 СЗ 2 н/о н/о +15.1 +13.3 89 +15 +15 1022.0 1002.3
23 12.07 СЗ 1 н/о н/о +14.4 +13.0 91 +15 +15 1022.2 1002.5
00 13.07 В 1 н/о н/о +14.2 +12.9 92 +15 +15 1022.5 1002.8
01 13.07 З 1 н/о н/о +14.0 +13.2 95 +15 +15 1022.5 1002.8
02 13.07 СЗ 2 н/о н/о +13.8 +12.6 92 +13 +13 1022.5 1002.7
03 13.07 З 2 н/о н/о +13.5 +12.0 91 +13 +13 1022.8 1003.0
04 13.07 З 1 н/о н/о +13.5 +11.7 89 +14 +14 1023.0 1003.2
05 13.07 СЗ 1 н/о н/о +13.5 +11.1 85 +14 +14 1023.3 1003.5
06 13.07 ЮЗ 1 н/о н/о +13.6 +11.1 85 +14 +14 1023.3 1003.6 +13.4 0.2
07 13.07 СЗ 1 н/о н/о +14.0 +11.7 86 +14 +14 1023.6 1003.8
08 13.07 СЗ 2 н/о н/о +14.3 +11.8 85 +14 +14 1024.0 1004.3
10 13.07 СЗ 3 н/о н/о +14.2 +12.1 87 +13 +13 1024.9 1005.1
11 13.07 С 3 н/о н/о +14.9 +11.7 81 +14 +14 1024.9 1005.2
12 13.07 СЗ 3 н/о н/о +14.3 +12.2 87 +13 +13 1025.2 1005.5
13 13.07 СЗ 2 н/о н/о +15.4 +12.6 83 +16 +16 1024.9 1005.2
14 13.07 С 2 н/о н/о +15.5 +12.9 84 +16 +16 1024.9 1005.2
15 13.07 С 3 н/о н/о +15.7 +12.3 80 +15 +15 1025.0 1005.3
16 13.07 СЗ 3 н/о н/о +15.2 +11.8 80 +14 +14 1025.1 1005.4
17 13.07 СЗ 2 н/о н/о +15.7 +11.5 76 +16 +16 1024.9 1005.3
18 13.07 СЗ 2 н/о н/о +15.2 +10.2 72 +15 +15 1025.0 1005.3 +15.9
19 13.07 СЗ 2 н/о н/о +15.2 +9.6 69 +15 +15 1025.0 1005.3
20 13.07 СЗ 2 н/о н/о +14.5 +9.8 73 +14 +14 1025.2 1005.4
21 13.07 Ю 1 н/о н/о +12.1 +9.5 84 +13 +13 1025.3 1005.4
22 13.07 ЮВ 1 н/о н/о +10.8 +9.3 90 +11 +11 1025.6 1005.6
23 13.07 В 2 н/о н/о +12.3 +10.3 88 +11 +11 1025.5 1005.6
00 14.07 СВ 1 н/о н/о +12.5 +10.3 86 +13 +13 1025.5 1005.6
01 14.07 С 1 н/о н/о +12.3 +10.9 91 +13 +13 1025.3 1005.4
02 14.07 СВ 1 н/о н/о +12.3 +10.0 86 +12 +12 1025.1 1005.2
03 14.07 В 1 н/о н/о +12.4 +10.2 86 +13 +13 1024.7 1004.8
04 14.07 СВ 1 н/о н/о +12.2 +10.6 90 +12 +12 1024.6 1004.7
05 14.07 Ю 1 н/о н/о +12.3 +10.9 91 +13 +13 1024.4 1004.5
06 14.07 СВ 1 н/о н/о +12.5 +11.0 91 +13 +13 1024.6 1004.7 +10.3
07 14.07 В 1 н/о н/о +13.2 +11.1 87 +14 +14 1024.6 1004.7
08 14.07 СВ 1 н/о н/о +14.2 +11.7 85 +15 +15 1024.6 1004.9
09 14.07 В 2 н/о н/о +14.7 +12.2 85 +15 +15 1024.7 1005.0
10 14.07 В 2 н/о н/о +15.3 +12.9 86 +15 +15 1024.8 1005.1
11 14.07 СВ 2 н/о н/о +16.0 +12.8 81 +16 +16 1024.6 1005.0
12 14.07 В 2 н/о н/о +18.7 +12.0 65 +20 +20 1024.3 1004.9
13 14.07 В 2 н/о н/о +18.5 +12.0 66 +20 +20 1024.2 1004.7
14 14.07 ЮВ 2 н/о н/о +19.0 +12.4 66 +21 +21 комфорт 1024.1 1004.7
15 14.07 В 2 н/о н/о +19.9 +13.3 66 +22 +22 комфорт 1023.9 1004.5
16 14.07 В 2 н/о н/о +19.6 +14.1 71 +22 +22 комфорт 1023.8 1004.4
17 14.07 В 2 н/о н/о +19.6 +13.2 67 +22 +22 комфорт 1023.4 1004.0
18 14.07 СВ 1 н/о н/о +20.3 +13.0 63 +23 +23 комфорт 1023.2 1003.8 +21.0
19 14.07 СВ 1 н/о н/о +18.5 +13.2 71 +20 +20 1023.1 1003.6
20 14.07 В 2 н/о н/о +17.2 +13.0 76 +18 +18 1023.2 1003.7
21 14.07 СВ 1 н/о н/о +14.2 +12.1 87 +14 +14 1023.8 1004.0
22 14.07 В 1 н/о н/о +12.2 +11.1 93 +12 +12 1024.0 1004.1
23 14.07 СЗ 1 н/о н/о +11.2 +10.5 95 +12 +12 1024.2 1004.2
00 15.07 В 1 н/о н/о +10.6 +10.1 97 +11 +11 1024.2 1004.2
01 15.07 СВ 1 н/о н/о +10.2 +9.9 98 +10 +10 1024.3 1004.2
02 15.07 Ю 1 н/о н/о +9.6 +9.4 99 +10 +10 1024.2 1004.1
03 15.07 ЮЗ 1 н/о н/о +9.9 +9.8 99 +10 +10 1023.8 1003.7
04 15.07 СВ 1 н/о н/о +8.9 +8.5 97 +9 +9 1023.9 1003.8
05 15.07 ЮЗ 1 н/о н/о +10.3 +10.3 100 +11 +11 1023.5 1003.5
06 15.07 СВ 1 н/о н/о +10.9 +10.8 99 +10 +10 1023.3 1003.4 +8.8
07 15.07 В 1 н/о н/о +13.5 +13.2 98 +14 +14 1023.1 1003.3
08 15.07 В 1 н/о н/о +16.7 +14.2 85 +18 +18 1022.7 1003.2
09 15.07 В 1 н/о н/о +19.3 +14.2 72 +22 +22 комфорт 1022.3 1002.9
10 15.07 ЮЗ 2 н/о н/о +19.6 +13.0 66 +22 +22 комфорт 1022.2 1002.8
11 15.07 ЮЗ 2 н/о н/о +20.1 +12.5 62 +23 +23 комфорт 1022.1 1002.8
12 15.07 ЮЗ 3 н/о н/о +20.6 +13.6 64 +24 +24 комфорт 1022.0 1002.7
13 15.07 ЮЗ 2 н/о н/о +21.0 +13.6 63 +24 +24 комфорт 1021.6 1002.4
14 15.07 ЮЗ 4 н/о н/о +20.5 +13.6 65 +23 +23 комфорт 1021.5 1002.2
15 15.07 ЮЗ 3 н/о н/о +22.6 +12.4 52 +25 +25 комфорт 1021.0 1001.9
16 15.07 ЮЗ 3 н/о н/о +22.0 +13.1 57 +25 +25 комфорт 1020.7 1001.5
17 15.07 ЮЗ 4 н/о н/о +21.8 +12.1 54 +24 +24 комфорт 1020.3 1001.1
18 15.07 З 2 н/о н/о +21.1 +12.8 59 +23 +23 комфорт 1020.5 1001.2 +22.8
19 15.07 З 1 н/о н/о +19.6 +13.7 69 +22 +22 комфорт 1020.8 1001.5
20 15.07 З 3 н/о н/о +18.1 +13.8 76 +19 +19 1021.1 1001.7
21 15.07 З 1 н/о н/о +16.7 +12.9 78 +18 +18 1021.3 1001.8
22 15.07 штиль 0 н/о н/о +15.5 +13.4 87 +15 +15 1021.4 1001.8
23 15.07 штиль 0 н/о н/о +14.9 +13.4 91 +15 +15 1021.3 1001.6
00 16.07 штиль 0 н/о н/о +14.6 +13.5 93 +14 +14 1021.1 1001.5
01 16.07 СВ 1 н/о н/о +14.6 +13.6 94 +16 +16 1020.8 1001.1
02 16.07 Ю 1 н/о н/о +14.8 +13.2 90 +16 +16 1020.6 1001.0
03 16.07 ЮЗ 1 н/о н/о +14.3 +13.6 96 +15 +15 1020.5 1000.8
04 16.07 С 1 н/о н/о +14.3 +13.3 94 +15 +15 1020.4 1000.7
05 16.07 штиль 0 н/о н/о +14.0 +13.4 96 +14 +14 1020.4 1000.7
06 16.07 СЗ 2 н/о н/о +14.5 +13.2 92 +14 +14 1020.5 1000.8 +13.8 1
07 16.07 ЮЗ 2 н/о н/о +16.0 +13.9 87 +16 +16 1020.4 1000.8
08 16.07 З 1 н/о н/о +17.5 +12.7 73 +19 +19 1020.1 1000.7
09 16.07 ЮЗ 1 н/о н/о +19.0 +11.9 63 +21 +21 комфорт 1019.8 1000.5
10 16.07 ЮЗ 3 н/о н/о +20.1 +11.5 58 +22 +22 комфорт 1019.5 1000.2
11 16.07 ЮЗ 2 н/о н/о +21.4 +12.5 57 +24 +24 комфорт 1019.1 999.9
12 16.07 З 3 н/о н/о +20.8 +13.1 61 +24 +24 комфорт 1018.8 999.6
13 16.07 З 3 н/о н/о +21.4 +13.8 62 +24 +24 комфорт 1018.6 999.5
14 16.07 З 2 н/о н/о +22.2 +12.1 53 +25 +25 комфорт 1018.3 999.1
15 16.07 З 3 н/о н/о +22.4 +12.3 53 +25 +25 комфорт 1017.9 998.8
16 16.07 З 2 н/о н/о +22.3 +12.2 53 +25 +25 комфорт 1017.7 998.6
17 16.07 З 3 н/о н/о +21.9 +12.5 55 +24 +24 комфорт 1017.6 998.5
18 16.07 З 2 н/о н/о +20.9 +11.4 55 +24 +24 комфорт 1017.7 998.5 +23.0
19 16.07 З 4 н/о н/о +19.1 +12.8 67 +20 +20 1017.9 998.5
20 16.07 З 2 н/о н/о +17.3 +11.9 71 +18 +18 1018.1 998.6
21 16.07 ЮЗ 2 н/о н/о +15.2 +11.5 79 +15 +15 1018.2 998.6
22 16.07 штиль 0 н/о н/о +12.6 +10.9 89 +12 +12 1018.4 998.7
23 16.07 СВ 1 н/о н/о +11.3 +10.4 94 +12 +12 1018.2 998.4
00 17.07 С 1 н/о н/о +10.8 +10.3 97 +11 +11 1018.1 998.2
01 17.07 С 1 н/о н/о +10.4 +10.1 98 +11 +11 1017.7 997.8
02 17.07 штиль 0 н/о н/о +9.9 +9.7 99 +9 +9 1017.2 997.3
03 17.07 СВ 1 н/о н/о +9.0 +8.8 99 +8 +8 1016.6 996.6
04 17.07 В 1 н/о н/о +8.7 +8.5 99 +9 +9 1016.3 996.4
05 17.07 СВ 1 н/о н/о +8.9 +8.8 99 +9 +9 1015.9 995.9
06 17.07 СВ 1 н/о н/о +10.1 +10.1 100 +10 +10 1015.4 995.6 +8.3
07 17.07 В 1 н/о н/о +12.0 +12.0 100 +13 +13 1015.0 995.3
08 17.07 ЮЗ 2 н/о н/о +14.7 +13.8 94 +15 +15 1014.7 995.1
09 17.07 ЮЗ 5 н/о н/о +16.5 +12.9 79 +16 +16 1014.3 994.8
10 17.07 ЮЗ 6 н/о н/о +17.9 +12.1 69 +17 +17 1013.8 994.5
11 17.07 ЮЗ 6 н/о н/о +17.7 +12.7 73 +17 +17 1013.8 994.5
12 17.07 ЮЗ 6 н/о н/о +18.0 +12.1 68 +18 +18 1013.2 994.0
13 17.07 ЮЗ 5 н/о н/о +18.1 +12.7 71 +18 +18 1012.7 993.4
14 17.07 ЮЗ 5 н/о н/о +17.5 +13.2 76 +17 +17 1012.4 993.1
15 17.07 ЮЗ 5 н/о н/о +16.2 +13.7 85 +15 +15 1012.4 993.0
16 17.07 ЮЗ 7 н/о н/о +16.6 +12.5 77 +15 +15 1011.7 992.4
17 17.07 ЮЗ 6 н/о н/о +15.8 +13.2 85 +14 +14 1011.1 991.7
18 17.07 ЮЗ 5 н/о н/о +15.9 +13.6 86 +15 +15 1010.5 991.1 +18.8
19 17.07 ЮЗ 4 н/о н/о +16.4 +13.4 82 +16 +16 1010.0 990.7
20 17.07 ЮЗ 3 н/о н/о +15.8 +13.7 87 +15 +15 1009.8 990.4
21 17.07 штиль 0 н/о н/о +15.1 +14.2 94 +15 +15 1009.8 990.3
22 17.07 ЮЗ 4 н/о н/о +15.3 +14.7 96 +14 +14 1009.0 989.6
23 17.07 ЮЗ 5 н/о н/о +15.8 +14.7 93 +15 +15 1008.4 989.0
00 18.07 З 3 н/о н/о +15.6 +14.9 96 +15 +15 1007.9 988.6 1
01 18.07 ЮЗ 4 н/о н/о +15.7 +15.1 96 +15 +15 1007.9 988.5
02 18.07 СЗ 1 н/о н/о +14.7 +13.4 92 +15 +15 1008.3 988.9
03 18.07 Ю 2 н/о н/о +13.9 +11.7 87 +14 +14 1008.2 988.7
04 18.07 З 1 н/о н/о +13.6 +12.2 91 +15 +15 1008.3 988.8
05 18.07 З 2 н/о н/о +13.5 +11.7 89 +13 +13 1008.9 989.4
06 18.07 ЮЗ 1 н/о н/о +13.6 +12.1 91 +14 +14 1009.0 989.5 +13.3 1
07 18.07 З 3 н/о н/о +14.6 +12.0 84 +14 +14 1009.1 989.7
08 18.07 З 3 н/о н/о +15.4 +11.6 78 +15 +15 1009.3 989.9

 

Местоположение метеостанции Бала (Великобритания): широта 52.90 долгота -3.57 высота над уровнем моря 163 м.

В архиве по умолчанию представлена погода в Бала за последнюю неделю. Архивные данные за месяц целиком и за предыдущие месяцы, начиная с января 2011 года, Вы можете получить, выбрав интересующий диапазон дат из раскрывающегося списка и нажав кнопку "Ввод!".


*Определитесь, кто Вы:
робот инопланетянин человек

Внимание! Время в таблицах - всемирное. Для получения местного времени необходимо прибавить поправку, которая равна 0 ч.

Смотрите также архив погоды в соседних городах и на ближайших метеорологических станциях:

Погода на Озере Вирнви (Великобритания) (18 км)
Погода в Кейпл Кериг (Великобритания) (33 км)
Погода в Риле (Великобритания) (39 км)
Погода в Гавардене (Великобритания) (50 км)
Погода в Шобери (Великобритания) (61 км)
Погода в Моне (Великобритания) (66 км)
Погода в Троскоеде (Великобритания) (66 км)
Погода в Кросби (Великобритания) (75 км)
Погода в Вэлли (Великобритания) (75 км)
Погода в Абердароне (Великобритания) (79 км)

Пояснения к столбцам:

Ветер - указаны скорость ветра в м/с - средняя за 10 мин, порывы в срок и между сроками (в фигурных скобках) и направление, откуда дует ветер: С - северный, СВ - северо-восточный, В - восточный, ЮВ - юго-восточный, Ю - южный, ЮЗ - юго-западный, З - западный, СЗ - северо-западный.
Видимость - горизонтальная дальность видимости в метрах или километрах. При видимости от 1 до 10 км при отсутствии осадков обычно наблюдается дымка, при ухудшении видимости до 1 км и менее - туман. В сухую погоду видимость может ухудшаться дымом, пылью или мглою.
Явления - указаны атмосферные явления, наблюдавшиеся в срок или в последний час перед сроком; фигурными скобками обозначены явления, наблюдавшиеся между сроками (за 1-3 часа до срока); квадратными скобками обозначены град или гололедные отложения с указанием их диаметра в мм.
Облачность - указаны через наклонную черту общая и нижняя облачность в баллах и высота нижней границы облаков в метрах; квадратными скобками обозначены формы облаков: Ci - перистые, Cs - перисто-слоистые, Cc - перисто-кучевые, Ac - высококучевые, As - высокослоистые, Sc - слоисто-кучевые, Ns - слоисто-дождевые, Cu - кучевые, Cb - кучево-дождевые. Подробнее классификацию облаков см. в Атласе облаков (PDF).
T - Температура воздуха - температура, измеренная на высоте 2 м над землей.
Td - Температура точки росы - температура, при понижении до которой содержащийся в воздухе водяной пар достигнет насыщения.
f - Относительная влажность воздуха - влажноcть воздуха, измеренная на высоте 2 м над землей.
Te - Эффективная температура - температура, которую ощущает одетый по сезону человек в тени. Характеристика душности погоды. При расчете учитывается влияние влажности воздуха и скорости ветра на теплоощущения человека.
Tes - Эффективная температура на солнце - температура, которую ощущает человек, с поправкой на солнечный нагрев. Характеристика знойности погоды. Зависит от высоты солнца над горизонтом, облачности и скорости ветра. Ночью, в пасмурную погоду, а также при ветре 12 м/с и более поправка равна нулю.
P - Атмосферное давление - приведенное к уровню моря атмосферное давление.
Po - Атмосферное давление - измеренное на уровне метеостанции атмосферное давление.
Tmin - Минимальная температура - минимум температуры воздуха на высоте 2 м над землей.
Tmax - Максимальная температура - максимум температуры воздуха на высоте 2 м над землей.
R - Количество осадков - Количество выпавших осадков за период времени, мм. При наведении курсора мыши на число - период времени, за который выпало указанное количество осадков.
R24 - Количество осадков - Количество выпавших осадков за 24 часа, мм.
S - Снежный покров - Высота снежного покрова, см. При наведении курсора мыши на число - состояние снежного покрова и степень покрытия местности в баллах.